Location: Unspecified
(0.0000°N, 0.0000°E)
Time: 11:03:54
(UTC+00:00)

Explorer 11/Cluster Stage 4 - Pass Details

Date: 05 November 2024
Orbit: 464 x 1202 km, 28.8° (Epoch: 06 December)

Event Time Altitude Azimuth Distance (km) Brightness Sun altitude
Rises 18:02:48 0° 263° (W) 3,898 12.5 -4.6°
Reaches altitude 10° 18:06:25 10° 246° (WSW) 3,033 11.4 -5.5°
Maximum altitude 18:11:37 19° 204° (SSW) 2,481 9.7 -6.7°
Drops below altitude 10° 18:16:59 10° 161° (SSE) 3,139 9.6 -8.0°
Sets 18:20:51 0° 144° (SE) 4,079 10.0 -8.9°
